Location: Allens Landing
(37.8284°N, 89.7284°W)
Time: 14:44:16
(UTC+00:00)

Courier 1B - All Passes

Search period start: 02 November 2024 00:00
Search period end: 12 November 2024 00:00
Orbit: 962 x 1208 km, 28.3° (Epoch: 01 November)

Date Brightness Start Highest point End Pass type
(mag) Time Alt. Az. Time Alt. Az. Time Alt. Az.
02 Nov - 00:02:13 10° SSW 00:07:23 23° SSE 00:12:47 10° ESE visible
02 Nov - 01:54:23 10° WSW 02:00:44 38° S 02:07:29 10° ESE visible
02 Nov - 03:47:49 10° WSW 03:54:23 37° S 04:01:16 10° SE visible
02 Nov - 05:42:18 10° WSW 05:47:55 23° SSW 05:53:42 10° SSE night (unlit)
02 Nov - 23:09:23 10° SSW 23:13:45 18° SSE 23:18:16 10° ESE daylight
03 Nov - 01:00:54 10° SW 01:06:59 34° S 01:13:25 10° ESE visible
03 Nov - 02:54:04 10° WSW 03:00:33 39° S 03:07:24 10° ESE visible
03 Nov - 04:48:09 10° WSW 04:54:07 27° SSW 05:00:20 10° SE night (unlit)
03 Nov - 06:45:30 10° SW 06:47:28 11° SSW 06:49:26 10° SSW night (unlit)
03 Nov - 22:17:01 10° S 22:20:11 14° SSE 22:23:24 10° SE daylight
04 Nov - 00:07:33 10° SW 00:13:17 30° SSE 00:19:18 10° ESE visible
04 Nov - 02:00:24 10° WSW 02:06:45 39° S 02:13:29 10° ESE visible
04 Nov - 03:54:11 10° WSW 04:00:20 31° SSW 04:06:46 10° SE visible
04 Nov - 05:49:49 10° WSW 05:53:44 15° SSW 05:57:42 10° S night (unlit)
04 Nov - 23:14:19 10° SW 23:19:36 26° SSE 23:25:07 10° ESE visible
05 Nov - 01:06:48 10° WSW 01:12:59 38° S 01:19:32 10° ESE visible
05 Nov - 03:00:20 10° WSW 03:06:32 34° S 03:13:05 10° SE visible
05 Nov - 04:55:10 10° WSW 04:59:59 19° SSW 05:04:57 10° SSE night (unlit)
05 Nov - 22:21:17 10° SSW 22:26:00 21° SSE 22:30:51 10° ESE daylight
06 Nov - 00:13:17 10° SW 00:19:15 36° S 00:25:32 10° ESE visible
06 Nov - 02:06:35 10° WSW 02:12:46 36° S 02:19:17 10° ESE visible
06 Nov - 04:00:54 10° WSW 04:06:14 23° SSW 04:11:47 10° SSE night (unlit)
06 Nov - 21:28:31 10° SSW 21:32:25 17° SSE 21:36:21 10° ESE daylight
06 Nov - 23:19:51 10° SW 23:25:34 32° SSE 23:31:31 10° ESE visible
07 Nov - 01:12:54 10° WSW 01:19:01 37° S 01:25:28 10° ESE visible
07 Nov - 03:06:52 10° WSW 03:12:30 26° SSW 03:18:23 10° SE visible
07 Nov - 05:03:54 10° SW 05:05:47 11° SSW 05:07:41 10° SSW night (unlit)
07 Nov - 20:36:21 10° S 20:38:51 12° SSE 20:41:22 10° SE daylight
07 Nov - 22:26:30 10° SW 22:31:55 28° SSE 22:37:30 10° ESE daylight
08 Nov - 00:19:16 10° WSW 00:25:17 37° S 00:31:35 10° ESE visible
08 Nov - 02:12:59 10° WSW 02:18:45 30° SSW 02:24:50 10° SE visible
08 Nov - 04:08:26 10° WSW 04:12:05 15° SSW 04:15:50 10° S night (unlit)
08 Nov - 21:33:17 10° SSW 21:38:18 24° SSE 21:43:24 10° ESE daylight
08 Nov - 23:25:42 10° WSW 23:31:35 36° S 23:37:42 10° ESE visible
09 Nov - 01:19:11 10° WSW 01:25:02 33° S 01:31:11 10° SE visible
09 Nov - 03:13:53 10° WSW 03:18:23 18° SSW 03:23:03 10° SSE visible
09 Nov - 20:40:15 10° SSW 20:44:42 20° SSE 20:49:11 10° ESE daylight
09 Nov - 22:32:11 10° SW 22:37:55 34° S 22:43:48 10° ESE daylight
10 Nov - 00:25:28 10° WSW 00:31:19 35° S 00:37:27 10° ESE visible
10 Nov - 02:19:41 10° WSW 02:24:42 22° SSW 02:29:54 10° SSE visible
10 Nov - 19:47:30 10° S 19:51:08 16° SSE 19:54:45 10° ESE daylight
10 Nov - 21:38:44 10° SW 21:44:16 31° SSE 21:49:54 10° ESE daylight
10 Nov - 23:31:47 10° WSW 23:37:38 36° S 23:43:42 10° ESE visible
11 Nov - 01:25:42 10° WSW 01:31:01 26° SSW 01:36:33 10° SE visible
11 Nov - 03:22:47 10° SW 03:24:14 11° SSW 03:25:42 10° SSW visible
11 Nov - 18:55:23 10° S 18:57:33 12° SSE 18:59:42 10° SE daylight
11 Nov - 20:45:20 10° SW 20:50:39 27° SSE 20:55:57 10° ESE daylight
11 Nov - 22:38:08 10° WSW 22:43:57 36° S 22:49:56 10° ESE daylight
